Time,TemperatureF,DewpointF,PressureIn,WindDirection,WindDirectionDegrees,WindSpeedMPH,WindSpeedGustMPH,Humidity,HourlyPrecipIn,Conditions,Clouds,dailyrainin,SoftwareType,DateUTC
2013-07-01 00:01:00,66.4,35.7,29.85,WNW,293,0.0,0.0,32,0.00,,,0.01,WUHU216HW,2013-07-01 04:01:00,
2013-07-01 00:06:00,66.4,34.9,29.85,WNW,293,0.0,0.0,31,0.00,,,0.00,WUHU216HW,2013-07-01 04:06:00,
2013-07-01 00:11:00,66.4,34.9,29.85,WNW,293,0.0,0.0,31,0.00,,,0.00,WUHU216HW,2013-07-01 04:11:00,
2013-07-01 00:17:00,66.4,34.9,29.85,WNW,293,0.0,0.0,31,0.00,,,0.00,WUHU216HW,2013-07-01 04:17:00,
2013-07-01 00:22:00,66.4,35.7,29.85,WNW,293,0.0,0.0,32,0.00,,,0.00,WUHU216HW,2013-07-01 04:22:00,
2013-07-01 00:27:00,66.4,35.7,29.85,WNW,293,0.0,0.0,32,0.00,,,0.00,WUHU216HW,2013-07-01 04:27:00,
2013-07-01 00:32:00,66.2,35.5,29.85,WNW,293,0.0,0.0,32,0.00,,,0.00,WUHU216HW,2013-07-01 04:32:00,
2013-07-01 00:37:00,66.4,34.2,29.85,WNW,293,0.0,0.0,30,0.00,,,0.00,WUHU216HW,2013-07-01 04:37:00,
2013-07-01 00:42:00,66.2,25.9,29.85,NW,315,0.0,0.0,22,0.00,,,0.00,WUHU216HW,2013-07-01 04:42:00,
2013-07-01 00:47:00,66.2,25.9,29.85,NW,315,0.0,0.0,22,0.00,,,0.00,WUHU216HW,2013-07-01 04:47:00,
2013-07-01 00:52:00,66.1,28.8,29.85,NW,315,0.0,0.0,25,0.00,,,0.00,WUHU216HW,2013-07-01 04:52:00,
2013-07-01 00:57:00,66.1,28.8,29.85,WNW,293,0.0,0.0,25,0.00,,,0.00,WUHU216HW,2013-07-01 04:57:00,
2013-07-01 01:02:00,66.1,28.8,29.85,WNW,293,0.0,0.4,25,0.00,,,0.00,WUHU216HW,2013-07-01 05:02:00,
2013-07-01 01:07:00,66.1,27.8,29.86,WNW,293,0.0,0.4,24,0.00,,,0.00,WUHU216HW,2013-07-01 05:07:00,
2013-07-01 01:12:00,66.1,26.8,29.86,WNW,293,0.9,0.9,23,0.00,,,0.00,WUHU216HW,2013-07-01 05:12:00,
2013-07-01 01:17:00,66.1,26.8,29.86,NW,315,0.0,0.9,23,0.00,,,0.00,WUHU216HW,2013-07-01 05:17:00,
2013-07-01 01:22:00,66.1,22.2,29.86,NW,315,0.0,0.7,19,0.00,,,0.00,WUHU216HW,2013-07-01 05:22:00,
2013-07-01 01:27:00,65.9,22.1,29.85,NW,315,0.0,0.0,19,0.00,,,0.00,WUHU216HW,2013-07-01 05:27:00,
2013-07-01 01:32:00,65.9,24.7,29.85,NW,315,0.0,0.0,21,0.00,,,0.00,WUHU216HW,2013-07-01 05:32:00,
2013-07-01 01:37:00,65.9,25.7,29.86,NW,315,0.0,0.0,22,0.00,,,0.00,WUHU216HW,2013-07-01 05:37:00,
2013-07-01 01:42:00,65.9,23.7,29.86,NW,315,0.0,0.0,20,0.00,,,0.00,WUHU216HW,2013-07-01 05:42:00,
2013-07-01 01:47:00,65.9,23.7,29.86,NW,315,0.0,0.0,20,0.00,,,0.00,WUHU216HW,2013-07-01 05:47:00,
2013-07-01 01:52:00,65.9,23.7,29.85,NW,315,0.0,0.0,20,0.00,,,0.00,WUHU216HW,2013-07-01 05:52:00,
2013-07-01 01:57:00,65.9,24.7,29.86,NW,315,0.0,0.0,21,0.00,,,0.00,WUHU216HW,2013-07-01 05:57:00,
2013-07-01 02:02:00,65.9,23.7,29.86,NW,315,0.4,0.7,20,0.00,,,0.00,WUHU216HW,2013-07-01 06:02:00,
2013-07-01 02:07:00,65.9,22.1,29.86,NE,45,0.0,0.7,19,0.00,,,0.00,WUHU216HW,2013-07-01 06:07:00,
2013-07-01 02:12:00,65.9,20.5,29.86,NE,45,0.0,0.0,18,0.00,,,0.00,WUHU216HW,2013-07-01 06:12:00,
2013-07-01 02:17:00,65.7,17.2,29.86,NE,45,0.0,0.0,16,0.00,,,0.00,WUHU216HW,2013-07-01 06:17:00,
2013-07-01 02:22:00,65.7,17.2,29.86,NE,45,0.0,0.0,16,0.00,,,0.00,WUHU216HW,2013-07-01 06:22:00,
2013-07-01 02:27:00,65.7,15.6,29.86,NE,45,0.2,0.2,15,0.00,,,0.00,WUHU216HW,2013-07-01 06:27:00,
2013-07-01 02:32:00,65.9,15.8,29.86,NE,45,0.0,0.4,15,0.00,,,0.00,WUHU216HW,2013-07-01 06:32:00,
2013-07-01 02:37:00,65.7,17.2,29.86,NE,45,0.0,0.4,16,0.00,,,0.00,WUHU216HW,2013-07-01 06:37:00,
2013-07-01 02:42:00,65.7,17.2,29.86,NE,45,0.0,0.0,16,0.00,,,0.00,WUHU216HW,2013-07-01 06:42:00,
2013-07-01 02:47:00,65.5,7.6,29.86,NNW,338,0.4,1.1,2,0.00,,,0.00,WUHU216HW,2013-07-01 06:47:00,
2013-07-01 02:52:00,65.3,7.4,29.86,NNW,338,0.0,1.1,7,0.00,,,0.00,WUHU216HW,2013-07-01 06:52:00,
2013-07-01 02:58:00,65.2,7.2,29.86,NNW,338,0.4,0.7,7,0.00,,,0.00,WUHU216HW,2013-07-01 06:58:00,
2013-07-01 03:03:00,64.8,6.9,29.86,NNW,338,1.6,1.6,1,0.00,,,0.00,WUHU216HW,2013-07-01 07:03:00,
2013-07-01 03:08:00,64.6,6.9,29.86,NNW,338,0.0,1.6,1,0.00,,,0.00,WUHU216HW,2013-07-01 07:08:00,
2013-07-01 03:13:00,64.4,6.7,29.87,NNW,338,0.4,1.1,1,0.00,,,0.00,WUHU216HW,2013-07-01 07:13:00,
2013-07-01 03:18:00,64.3,6.6,29.86,NNW,338,0.7,1.1,1,0.00,,,0.00,WUHU216HW,2013-07-01 07:18:00,
2013-07-01 03:23:00,64.3,6.6,29.87,NNW,338,0.4,0.7,2,0.00,,,0.00,WUHU216HW,2013-07-01 07:23:00,
2013-07-01 03:28:00,64.1,6.4,29.86,NW,315,1.1,1.1,1,0.00,,,0.00,WUHU216HW,2013-07-01 07:28:00,
2013-07-01 03:33:00,64.1,6.4,29.87,NW,315,0.7,1.1,1,0.00,,,0.00,WUHU216HW,2013-07-01 07:33:00,
2013-07-01 03:38:00,64.1,6.4,29.87,NW,315,0.0,1.1,1,0.00,,,0.00,WUHU216HW,2013-07-01 07:38:00,
2013-07-01 03:43:00,64.3,6.6,29.88,NW,315,0.7,0.7,1,0.00,,,0.00,WUHU216HW,2013-07-01 07:43:00,
2013-07-01 03:48:00,64.3,6.6,29.88,NW,315,0.0,0.7,1,0.00,,,0.00,WUHU216HW,2013-07-01 07:48:00,
2013-07-01 03:53:00,64.4,6.7,29.87,NW,315,0.0,0.4,1,0.00,,,0.00,WUHU216HW,2013-07-01 07:53:00,
2013-07-01 03:58:00,64.4,6.7,29.87,NW,315,0.0,0.0,1,0.00,,,0.00,WUHU216HW,2013-07-01 07:58:00,
2013-07-01 04:03:00,64.4,6.7,29.87,NW,315,0.0,0.0,1,0.00,,,0.00,WUHU216HW,2013-07-01 08:03:00,
2013-07-01 04:08:00,64.3,6.6,29.88,NW,315,0.0,0.0,2,0.00,,,0.00,WUHU216HW,2013-07-01 08:08:00,
2013-07-01 04:13:00,64.1,6.4,29.87,NNW,338,0.4,1.1,1,0.00,,,0.00,WUHU216HW,2013-07-01 08:13:00,
2013-07-01 04:18:00,63.9,6.3,29.88,NNW,338,0.7,1.1,1,0.00,,,0.00,WUHU216HW,2013-07-01 08:18:00,
2013-07-01 04:23:00,63.7,6.1,29.88,NNW,338,0.4,1.3,1,0.00,,,0.00,WUHU216HW,2013-07-01 08:23:00,
2013-07-01 04:28:00,63.7,6.1,29.88,NNW,338,0.7,1.3,1,0.00,,,0.00,WUHU216HW,2013-07-01 08:28:00,
2013-07-01 04:33:00,63.7,6.1,29.87,NNW,338,1.3,1.3,1,0.00,,,0.00,WUHU216HW,2013-07-01 08:33:00,
2013-07-01 04:38:00,63.9,6.3,29.87,NNW,338,1.1,1.8,1,0.00,,,0.00,WUHU216HW,2013-07-01 08:38:00,
2013-07-01 04:43:00,63.9,6.3,29.87,NW,315,1.1,1.8,1,0.00,,,0.00,WUHU216HW,2013-07-01 08:43:00,
2013-07-01 04:48:00,64.1,6.4,29.88,NW,315,0.0,1.8,1,0.00,,,0.00,WUHU216HW,2013-07-01 08:48:00,
2013-07-01 04:53:00,64.1,6.4,29.88,North,0,0.4,0.7,1,0.00,,,0.00,WUHU216HW,2013-07-01 08:53:00,
2013-07-01 04:58:00,64.3,6.6,29.88,North,0,0.4,0.9,1,0.00,,,0.00,WUHU216HW,2013-07-01 08:58:00,
2013-07-01 05:03:00,64.4,6.7,29.88,North,0,0.4,0.9,1,0.00,,,0.00,WUHU216HW,2013-07-01 09:03:00,
2013-07-01 05:08:00,64.4,6.7,29.88,North,0,0.0,0.4,1,0.00,,,0.00,WUHU216HW,2013-07-01 09:08:00,
2013-07-01 05:13:00,64.4,6.7,29.89,North,0,0.0,0.0,1,0.00,,,0.00,WUHU216HW,2013-07-01 09:13:00,
2013-07-01 05:18:00,64.6,6.9,29.89,ENE,68,0.0,0.7,1,0.00,,,0.00,WUHU216HW,2013-07-01 09:18:00,
2013-07-01 05:23:00,64.6,6.9,29.90,SE,135,0.7,1.1,1,0.00,,,0.00,WUHU216HW,2013-07-01 09:23:00,
2013-07-01 05:28:00,64.6,6.9,29.90,SE,135,0.0,1.1,1,0.00,,,0.00,WUHU216HW,2013-07-01 09:28:00,
2013-07-01 05:33:00,64.6,6.9,29.90,ESE,113,0.0,0.9,1,0.00,,,0.00,WUHU216HW,2013-07-01 09:33:00,
2013-07-01 05:38:00,64.8,6.9,29.90,ESE,113,0.2,0.7,1,0.00,,,0.00,WUHU216HW,2013-07-01 09:38:00,
2013-07-01 05:43:00,64.8,6.9,29.90,NNE,23,0.0,0.7,1,0.00,,,0.00,WUHU216HW,2013-07-01 09:43:00,
2013-07-01 05:48:00,64.8,6.9,29.90,SE,135,0.2,0.7,1,0.00,,,0.00,WUHU216HW,2013-07-01 09:48:00,
2013-07-01 05:53:00,65.0,7.1,29.90,SE,135,0.4,0.7,1,0.00,,,0.00,WUHU216HW,2013-07-01 09:53:00,
2013-07-01 05:59:00,65.0,7.1,29.90,SE,135,0.2,0.9,1,0.00,,,0.00,WUHU216HW,2013-07-01 09:59:00,
2013-07-01 06:04:00,65.0,7.1,29.90,SE,135,0.0,0.9,1,0.00,,,0.00,WUHU216HW,2013-07-01 10:04:00,
2013-07-01 06:09:00,65.2,7.2,29.90,ESE,113,0.4,0.9,1,0.00,,,0.00,WUHU216HW,2013-07-01 10:09:00,
2013-07-01 06:14:00,65.3,7.4,29.90,WNW,293,0.4,1.8,1,0.00,,,0.00,WUHU216HW,2013-07-01 10:14:00,
2013-07-01 06:19:00,65.3,7.4,29.90,SE,135,0.0,1.8,1,0.00,,,0.00,WUHU216HW,2013-07-01 10:19:00,
2013-07-01 06:24:00,65.7,7.7,29.91,SE,135,0.0,1.1,1,0.00,,,0.00,WUHU216HW,2013-07-01 10:24:00,
2013-07-01 06:29:00,65.9,7.8,29.91,SE,135,0.7,1.3,1,0.00,,,0.00,WUHU216HW,2013-07-01 10:29:00,
2013-07-01 06:34:00,66.1,7.9,29.91,ESE,113,0.4,1.3,1,0.00,,,0.00,WUHU216HW,2013-07-01 10:34:00,
2013-07-01 06:39:00,66.2,8.1,29.91,SE,135,1.3,1.3,1,0.00,,,0.00,WUHU216HW,2013-07-01 10:39:00,
2013-07-01 06:44:00,66.4,8.3,29.91,SE,135,0.0,1.3,1,0.00,,,0.00,WUHU216HW,2013-07-01 10:44:00,
2013-07-01 06:49:00,66.6,8.4,29.91,SE,135,1.1,1.3,1,0.00,,,0.00,WUHU216HW,2013-07-01 10:49:00,
2013-07-01 06:54:00,66.6,8.4,29.91,SE,135,0.4,1.1,1,0.00,,,0.00,WUHU216HW,2013-07-01 10:54:00,
2013-07-01 06:59:00,66.6,8.4,29.91,SSE,158,0.4,1.8,3,0.00,,,0.00,WUHU216HW,2013-07-01 10:59:00,
2013-07-01 07:04:00,66.8,8.6,29.91,SE,135,0.2,1.8,5,0.00,,,0.00,WUHU216HW,2013-07-01 11:04:00,
2013-07-01 07:09:00,66.8,8.6,29.91,SE,135,0.0,1.3,5,0.00,,,0.00,WUHU216HW,2013-07-01 11:09:00,
2013-07-01 07:14:00,67.0,8.6,29.91,SE,135,0.0,1.1,5,0.00,,,0.00,WUHU216HW,2013-07-01 11:14:00,
2013-07-01 07:19:00,67.1,8.8,29.92,SW,225,0.2,1.3,4,0.00,,,0.00,WUHU216HW,2013-07-01 11:19:00,
2013-07-01 07:24:00,67.1,8.8,29.92,SW,225,0.0,1.3,6,0.00,,,0.00,WUHU216HW,2013-07-01 11:24:00,
2013-07-01 07:29:00,67.3,9.0,29.92,SSE,158,0.0,0.4,6,0.00,,,0.00,WUHU216HW,2013-07-01 11:29:00,
2013-07-01 07:34:00,67.5,9.1,29.92,SSE,158,0.4,0.4,8,0.00,,,0.00,WUHU216HW,2013-07-01 11:34:00,
2013-07-01 07:39:00,67.7,10.9,29.91,SE,135,0.4,0.4,11,0.00,,,0.00,WUHU216HW,2013-07-01 11:39:00,
2013-07-01 07:44:00,67.9,9.4,29.91,ESE,113,1.1,1.1,8,0.00,,,0.00,WUHU216HW,2013-07-01 11:44:00,
2013-07-01 07:49:00,68.4,13.0,29.91,East,90,0.0,1.1,12,0.00,,,0.00,WUHU216HW,2013-07-01 11:49:00,
2013-07-01 07:55:00,68.8,14.9,29.92,SE,135,0.0,0.9,13,0.00,,,0.00,WUHU216HW,2013-07-01 11:55:00,
2013-07-01 08:00:00,69.1,24.9,29.92,NE,45,0.2,0.4,19,0.00,,,0.00,WUHU216HW,2013-07-01 12:00:00,
2013-07-01 08:05:00,68.9,28.3,29.92,NE,45,0.0,0.7,22,0.00,,,0.00,WUHU216HW,2013-07-01 12:05:00,
2013-07-01 08:10:00,69.1,27.5,29.92,ESE,113,1.1,1.3,21,0.00,,,0.00,WUHU216HW,2013-07-01 12:10:00,
2013-07-01 08:15:00,69.3,29.6,29.92,SE,135,0.4,1.3,23,0.00,,,0.00,WUHU216HW,2013-07-01 12:15:00,
2013-07-01 08:20:00,69.3,30.6,29.92,SE,135,0.2,1.1,24,0.00,,,0.00,WUHU216HW,2013-07-01 12:20:00,
2013-07-01 08:25:00,69.7,30.9,29.92,SSE,158,0.4,1.1,24,0.00,,,0.00,WUHU216HW,2013-07-01 12:25:00,
2013-07-01 08:30:00,69.7,31.9,29.92,SSE,158,1.1,1.1,25,0.00,,,0.00,WUHU216HW,2013-07-01 12:30:00,
2013-07-01 08:35:00,69.8,33.0,29.93,SSE,158,1.1,1.3,26,0.00,,,0.00,WUHU216HW,2013-07-01 12:35:00,
2013-07-01 08:40:00,69.8,35.1,29.93,SE,135,2.5,2.5,28,0.00,,,0.00,WUHU216HW,2013-07-01 12:40:00,
2013-07-01 08:45:00,70.0,35.2,29.93,ESE,113,1.3,2.5,28,0.00,,,0.00,WUHU216HW,2013-07-01 12:45:00,
2013-07-01 08:50:00,70.2,35.4,29.93,SE,135,1.1,2.5,28,0.00,,,0.00,WUHU216HW,2013-07-01 12:50:00,
2013-07-01 08:55:00,70.6,36.7,29.92,SE,135,0.9,2.5,29,0.00,,,0.00,WUHU216HW,2013-07-01 12:55:00,
2013-07-01 09:00:00,70.9,38.1,29.93,SE,135,1.3,1.8,30,0.00,,,0.00,WUHU216HW,2013-07-01 13:00:00,
2013-07-01 09:05:00,71.3,39.2,29.92,East,90,0.0,1.6,31,0.00,,,0.00,WUHU216HW,2013-07-01 13:05:00,
2013-07-01 09:10:00,72.0,41.2,29.92,ESE,113,0.7,0.9,33,0.00,,,0.00,WUHU216HW,2013-07-01 13:10:00,
2013-07-01 09:15:00,72.4,43.0,29.93,SE,135,1.3,1.3,35,0.00,,,0.00,WUHU216HW,2013-07-01 13:15:00,
2013-07-01 09:20:00,73.1,44.4,29.92,SSE,158,1.1,1.6,36,0.00,,,0.00,WUHU216HW,2013-07-01 13:20:00,
2013-07-01 09:25:00,73.6,46.4,29.93,SE,135,0.0,1.6,38,0.00,,,0.00,WUHU216HW,2013-07-01 13:25:00,
2013-07-01 09:30:00,73.8,52.2,29.93,NE,45,0.4,1.8,47,0.00,,,0.00,WUHU216HW,2013-07-01 13:30:00,
2013-07-01 09:35:00,74.0,53.0,29.93,North,0,0.7,1.8,48,0.00,,,0.00,WUHU216HW,2013-07-01 13:35:00,
2013-07-01 09:40:00,73.8,53.4,29.93,NW,315,0.7,1.8,49,0.00,,,0.00,WUHU216HW,2013-07-01 13:40:00,
2013-07-01 09:45:00,73.8,55.5,29.93,North,0,1.8,2.2,53,0.00,,,0.00,WUHU216HW,2013-07-01 13:45:00,
2013-07-01 09:50:00,74.2,53.7,29.92,NNW,338,0.0,2.2,49,0.00,,,0.00,WUHU216HW,2013-07-01 13:50:00,
2013-07-01 09:55:00,74.7,55.5,29.93,North,0,0.4,1.3,51,0.00,,,0.00,WUHU216HW,2013-07-01 13:55:00,
2013-07-01 10:00:00,75.1,55.8,29.93,SE,135,0.7,1.1,51,0.00,,,0.00,WUHU216HW,2013-07-01 14:00:00,
2013-07-01 10:05:00,75.2,56.0,29.93,East,90,0.4,1.1,51,0.00,,,0.00,WUHU216HW,2013-07-01 14:05:00,
2013-07-01 10:10:00,75.4,57.6,29.93,NNW,338,0.2,0.9,54,0.00,,,0.00,WUHU216HW,2013-07-01 14:10:00,
2013-07-01 10:15:00,75.2,59.5,29.93,North,0,0.4,1.8,58,0.00,,,0.00,WUHU216HW,2013-07-01 14:15:00,
2013-07-01 10:20:00,74.5,57.2,29.94,NNW,338,2.0,2.0,55,0.00,,,0.00,WUHU216HW,2013-07-01 14:20:00,
2013-07-01 10:25:00,74.7,55.9,29.94,NNW,338,0.0,2.0,52,0.00,,,0.00,WUHU216HW,2013-07-01 14:25:00,
2013-07-01 10:30:00,75.2,56.4,29.94,SE,135,1.1,1.8,52,0.00,,,0.00,WUHU216HW,2013-07-01 14:30:00,
2013-07-01 10:35:00,75.4,59.1,29.94,North,0,1.1,2.0,57,0.00,,,0.00,WUHU216HW,2013-07-01 14:35:00,
2013-07-01 10:40:00,75.4,58.6,29.94,NW,315,1.1,2.5,56,0.00,,,0.00,WUHU216HW,2013-07-01 14:40:00,
2013-07-01 10:46:00,75.8,58.4,29.94,North,0,1.1,2.5,55,0.00,,,0.00,WUHU216HW,2013-07-01 14:46:00,
2013-07-01 10:51:00,76.5,58.6,29.94,East,90,1.8,1.8,54,0.00,,,0.00,WUHU216HW,2013-07-01 14:51:00,
2013-07-01 10:56:00,77.8,59.2,29.95,ESE,113,1.1,1.8,53,0.00,,,0.00,WUHU216HW,2013-07-01 14:56:00,
2013-07-01 11:01:00,78.8,61.8,29.95,SE,135,1.1,1.8,56,0.00,,,0.00,WUHU216HW,2013-07-01 15:01:00,
2013-07-01 11:06:00,79.6,63.6,29.95,WSW,248,1.8,1.8,58,0.00,,,0.00,WUHU216HW,2013-07-01 15:06:00,
2013-07-01 11:11:00,79.6,65.4,29.95,North,0,2.9,2.9,62,0.00,,,0.00,WUHU216HW,2013-07-01 15:11:00,
2013-07-01 11:16:00,78.8,64.4,29.95,WSW,248,0.2,2.9,61,0.00,,,0.00,WUHU216HW,2013-07-01 15:16:00,
2013-07-01 11:21:00,78.8,64.8,29.95,West,270,0.9,1.3,62,0.00,,,0.00,WUHU216HW,2013-07-01 15:21:00,
2013-07-01 11:26:00,78.8,64.4,29.95,West,270,0.0,1.1,61,0.00,,,0.00,WUHU216HW,2013-07-01 15:26:00,
2013-07-01 11:31:00,78.7,64.2,29.95,WNW,293,0.7,1.1,61,0.00,,,0.00,WUHU216HW,2013-07-01 15:31:00,
2013-07-01 11:36:00,78.5,64.0,29.95,NNW,338,0.4,0.9,61,0.00,,,0.00,WUHU216HW,2013-07-01 15:36:00,
2013-07-01 11:41:00,78.3,64.3,29.95,North,0,0.4,1.3,62,0.00,,,0.00,WUHU216HW,2013-07-01 15:41:00,
2013-07-01 11:46:00,78.5,64.0,29.95,ENE,68,0.4,1.3,61,0.00,,,0.00,WUHU216HW,2013-07-01 15:46:00,
2013-07-01 11:51:00,78.5,64.0,29.95,NE,45,0.0,1.1,61,0.00,,,0.00,WUHU216HW,2013-07-01 15:51:00,
2013-07-01 11:56:00,78.8,64.4,29.95,North,0,1.1,1.1,61,0.00,,,0.00,WUHU216HW,2013-07-01 15:56:00,
2013-07-01 12:01:00,78.1,64.1,29.95,NNW,338,0.7,1.8,62,0.00,,,0.00,WUHU216HW,2013-07-01 16:01:00,
2013-07-01 12:06:00,77.8,63.7,29.95,North,0,0.0,1.8,62,0.00,,,0.00,WUHU216HW,2013-07-01 16:06:00,
2013-07-01 12:11:00,77.4,62.9,29.95,NNE,23,2.2,2.2,61,0.00,,,0.00,WUHU216HW,2013-07-01 16:11:00,
2013-07-01 12:16:00,76.0,60.7,29.95,North,0,0.9,2.9,59,0.00,,,0.00,WUHU216HW,2013-07-01 16:16:00,
2013-07-01 12:21:00,75.4,58.6,29.94,NNE,23,2.7,3.1,56,0.00,,,0.00,WUHU216HW,2013-07-01 16:21:00,
2013-07-01 12:26:00,75.4,58.2,29.94,North,0,1.8,3.1,55,0.00,,,0.00,WUHU216HW,2013-07-01 16:26:00,
2013-07-01 12:31:00,75.2,58.5,29.94,NNW,338,2.0,4.5,56,0.00,,,0.00,WUHU216HW,2013-07-01 16:31:00,
2013-07-01 12:36:00,75.6,58.3,29.94,NNW,338,1.1,4.5,55,0.00,,,0.00,WUHU216HW,2013-07-01 16:36:00,
2013-07-01 12:41:00,76.0,56.6,29.94,NNW,338,1.3,2.0,51,0.00,,,0.00,WUHU216HW,2013-07-01 16:41:00,
2013-07-01 12:46:00,76.7,59.2,29.94,North,0,1.1,2.7,55,0.00,,,0.00,WUHU216HW,2013-07-01 16:46:00,
2013-07-01 12:51:00,76.3,58.0,29.93,North,0,1.6,2.7,53,0.00,,,0.00,WUHU216HW,2013-07-01 16:51:00,
2013-07-01 12:56:00,76.1,57.2,29.93,ENE,68,1.1,2.5,52,0.00,,,0.00,WUHU216HW,2013-07-01 16:56:00,
2013-07-01 13:01:00,76.1,57.8,29.93,NNW,338,0.4,1.3,53,0.00,,,0.00,WUHU216HW,2013-07-01 17:01:00,
2013-07-01 13:06:00,75.8,56.4,29.93,NNW,338,0.2,2.5,51,0.00,,,0.00,WUHU216HW,2013-07-01 17:06:00,
2013-07-01 13:11:00,75.4,55.0,29.93,NNW,338,1.1,2.5,49,0.00,,,0.00,WUHU216HW,2013-07-01 17:11:00,
2013-07-01 13:16:00,74.9,52.0,29.93,NNW,338,1.8,2.5,45,0.00,,,0.00,WUHU216HW,2013-07-01 17:16:00,
2013-07-01 13:21:00,74.3,53.4,29.92,WNW,293,0.4,2.7,48,0.00,,,0.00,WUHU216HW,2013-07-01 17:21:00,
2013-07-01 13:26:00,74.2,51.4,29.92,NNW,338,1.3,2.7,45,0.00,,,0.00,WUHU216HW,2013-07-01 17:26:00,
2013-07-01 13:31:00,74.0,49.4,29.93,NNW,338,0.9,1.8,42,0.00,,,0.00,WUHU216HW,2013-07-01 17:31:00,
2013-07-01 13:36:00,74.2,49.0,29.93,NNW,338,0.7,1.6,41,0.00,,,0.00,WUHU216HW,2013-07-01 17:36:00,
2013-07-01 13:41:00,74.0,49.4,29.93,WNW,293,0.4,1.3,42,0.00,,,0.00,WUHU216HW,2013-07-01 17:41:00,
2013-07-01 13:46:00,74.0,49.4,29.93,WNW,293,0.7,1.3,42,0.00,,,0.00,WUHU216HW,2013-07-01 17:46:00,
2013-07-01 13:52:00,74.0,49.4,29.93,WNW,293,0.4,0.7,42,0.00,,,0.00,WUHU216HW,2013-07-01 17:52:00,
2013-07-01 13:57:00,74.0,48.2,29.93,WNW,293,0.0,0.4,40,0.00,,,0.00,WUHU216HW,2013-07-01 17:57:00,
2013-07-01 14:02:00,74.3,47.8,29.93,WNW,293,0.0,0.0,39,0.00,,,0.00,WUHU216HW,2013-07-01 18:02:00,
2013-07-01 14:07:00,74.9,47.5,29.93,WNW,293,0.4,0.4,38,0.00,,,0.00,WUHU216HW,2013-07-01 18:07:00,
2013-07-01 14:12:00,75.2,49.3,29.93,WNW,293,0.0,0.4,40,0.00,,,0.00,WUHU216HW,2013-07-01 18:12:00,
2013-07-01 14:17:00,75.4,50.1,29.93,WNW,293,0.4,0.4,41,0.00,,,0.00,WUHU216HW,2013-07-01 18:17:00,
2013-07-01 14:22:00,75.8,51.7,29.94,WNW,293,0.2,0.7,43,0.00,,,0.00,WUHU216HW,2013-07-01 18:22:00,
2013-07-01 14:27:00,76.0,51.9,29.94,WNW,293,0.0,0.7,43,0.00,,,0.00,WUHU216HW,2013-07-01 18:27:00,
2013-07-01 14:32:00,76.0,53.0,29.94,WNW,293,0.0,0.4,45,0.00,,,0.00,WUHU216HW,2013-07-01 18:32:00,
2013-07-01 14:37:00,76.0,52.4,29.94,West,270,0.9,1.1,44,0.00,,,0.00,WUHU216HW,2013-07-01 18:37:00,
2013-07-01 14:42:00,75.8,52.8,29.94,West,270,0.4,1.1,45,0.00,,,0.00,WUHU216HW,2013-07-01 18:42:00,
2013-07-01 14:47:00,75.4,52.6,29.94,West,270,0.0,0.7,45,0.00,,,0.00,WUHU216HW,2013-07-01 18:47:00,
2013-07-01 14:52:00,75.2,51.8,29.94,West,270,0.0,0.7,44,0.00,,,0.00,WUHU216HW,2013-07-01 18:52:00,
2013-07-01 14:57:00,75.2,51.1,29.94,West,270,0.0,0.0,43,0.00,,,0.00,WUHU216HW,2013-07-01 18:57:00,
2013-07-01 15:02:00,74.9,50.2,29.94,West,270,0.0,0.0,42,0.00,,,0.00,WUHU216HW,2013-07-01 19:02:00,
2013-07-01 15:07:00,74.9,49.6,29.94,West,270,0.0,0.0,41,0.00,,,0.00,WUHU216HW,2013-07-01 19:07:00,
2013-07-01 15:12:00,74.9,49.0,29.94,West,270,0.0,0.0,40,0.00,,,0.00,WUHU216HW,2013-07-01 19:12:00,
2013-07-01 15:17:00,75.1,49.1,29.94,West,270,0.0,0.0,40,0.00,,,0.00,WUHU216HW,2013-07-01 19:17:00,
2013-07-01 15:22:00,75.2,48.6,29.94,WNW,293,0.4,0.7,39,0.00,,,0.00,WUHU216HW,2013-07-01 19:22:00,
2013-07-01 15:27:00,75.4,50.7,29.94,NNW,338,1.1,1.1,42,0.00,,,0.00,WUHU216HW,2013-07-01 19:27:00,
2013-07-01 15:32:00,75.2,51.1,29.94,NW,315,2.0,2.9,43,0.00,,,0.00,WUHU216HW,2013-07-01 19:32:00,
2013-07-01 15:37:00,74.9,49.0,29.94,NNW,338,1.6,2.9,40,0.00,,,0.00,WUHU216HW,2013-07-01 19:37:00,
2013-07-01 15:42:00,74.7,43.6,29.94,NW,315,1.8,2.2,33,0.00,,,0.00,WUHU216HW,2013-07-01 19:42:00,
2013-07-01 15:47:00,74.7,41.3,29.93,NW,315,2.0,2.0,30,0.00,,,0.00,WUHU216HW,2013-07-01 19:47:00,
2013-07-01 15:52:00,74.9,43.8,29.94,NNW,338,1.8,2.7,33,0.00,,,0.00,WUHU216HW,2013-07-01 19:52:00,
2013-07-01 15:57:00,75.1,41.6,29.94,North,0,1.1,2.7,30,0.00,,,0.00,WUHU216HW,2013-07-01 19:57:00,
2013-07-01 16:02:00,75.2,51.1,29.94,NNW,338,1.8,1.8,43,0.00,,,0.00,WUHU216HW,2013-07-01 20:02:00,
2013-07-01 16:08:00,75.1,50.4,29.94,North,0,1.8,2.0,42,0.00,,,0.00,WUHU216HW,2013-07-01 20:08:00,
2013-07-01 16:13:00,74.9,52.7,29.93,NNW,338,2.5,2.5,46,0.00,,,0.00,WUHU216HW,2013-07-01 20:13:00,
2013-07-01 16:18:00,74.9,52.7,29.93,NNW,338,2.0,3.6,46,0.00,,,0.00,WUHU216HW,2013-07-01 20:18:00,
2013-07-01 16:23:00,74.5,48.7,29.93,NW,315,2.0,3.6,40,0.00,,,0.00,WUHU216HW,2013-07-01 20:23:00,
2013-07-01 16:28:00,74.3,47.0,29.93,NNW,338,2.5,2.5,38,0.00,,,0.00,WUHU216HW,2013-07-01 20:28:00,
2013-07-01 16:33:00,74.3,47.8,29.93,North,0,0.7,2.5,39,0.00,,,0.00,WUHU216HW,2013-07-01 20:33:00,
2013-07-01 16:38:00,74.3,44.7,29.93,North,0,1.1,1.6,35,0.00,,,0.00,WUHU216HW,2013-07-01 20:38:00,
2013-07-01 16:43:00,74.3,47.0,29.93,North,0,2.7,2.7,38,0.00,,,0.00,WUHU216HW,2013-07-01 20:43:00,
2013-07-01 16:48:00,74.3,49.2,29.93,North,0,1.6,2.7,41,0.00,,,0.00,WUHU216HW,2013-07-01 20:48:00,
2013-07-01 16:53:00,74.3,51.0,29.93,NNW,338,1.8,2.2,44,0.00,,,0.00,WUHU216HW,2013-07-01 20:53:00,
2013-07-01 16:58:00,74.2,51.4,29.93,North,0,2.2,2.2,45,0.00,,,0.00,WUHU216HW,2013-07-01 20:58:00,
2013-07-01 17:03:00,74.2,51.9,29.93,NNW,338,2.2,2.2,46,0.00,,,0.00,WUHU216HW,2013-07-01 21:03:00,
2013-07-01 17:08:00,73.8,51.0,29.93,NNE,23,2.0,2.7,45,0.00,,,0.00,WUHU216HW,2013-07-01 21:08:00,
2013-07-01 17:13:00,73.8,48.6,29.93,NNW,338,2.9,2.9,41,0.00,,,0.00,WUHU216HW,2013-07-01 21:13:00,
2013-07-01 17:18:00,73.8,49.2,29.93,North,0,0.9,2.9,42,0.00,,,0.00,WUHU216HW,2013-07-01 21:18:00,
2013-07-01 17:23:00,73.8,50.4,29.93,North,0,1.1,1.8,44,0.00,,,0.00,WUHU216HW,2013-07-01 21:23:00,
2013-07-01 17:28:00,73.6,48.4,29.93,NNW,338,0.7,2.5,41,0.00,,,0.00,WUHU216HW,2013-07-01 21:28:00,
2013-07-01 17:33:00,73.4,48.9,29.93,NNW,338,1.3,2.5,42,0.00,,,0.00,WUHU216HW,2013-07-01 21:33:00,
2013-07-01 17:38:00,73.3,49.3,29.93,NNW,338,2.9,3.1,43,0.00,,,0.00,WUHU216HW,2013-07-01 21:38:00,
2013-07-01 17:43:00,73.1,48.0,29.93,NNW,338,0.9,3.1,41,0.00,,,0.00,WUHU216HW,2013-07-01 21:43:00,
2013-07-01 17:48:00,73.1,42.8,29.93,NNW,338,1.1,1.8,34,0.00,,,0.00,WUHU216HW,2013-07-01 21:48:00,
2013-07-01 17:53:00,72.7,41.9,29.93,North,0,1.1,1.8,33,0.00,,,0.00,WUHU216HW,2013-07-01 21:53:00,
2013-07-01 17:58:00,72.7,40.3,29.93,NNW,338,2.7,2.7,31,0.00,,,0.00,WUHU216HW,2013-07-01 21:58:00,
2013-07-01 18:03:00,72.5,42.4,29.93,North,0,1.3,2.7,34,0.00,,,0.00,WUHU216HW,2013-07-01 22:03:00,
2013-07-01 18:08:00,72.5,40.1,29.93,North,0,1.1,2.5,31,0.00,,,0.00,WUHU216HW,2013-07-01 22:08:00,
2013-07-01 18:14:00,72.4,39.2,29.93,North,0,1.6,2.5,30,0.00,,,0.00,WUHU216HW,2013-07-01 22:14:00,
2013-07-01 18:19:00,72.2,39.9,29.93,NNW,338,3.6,3.6,31,0.00,,,0.00,WUHU216HW,2013-07-01 22:19:00,
2013-07-01 18:24:00,71.8,32.7,29.93,North,0,1.8,3.6,24,0.01,,,0.01,WUHU216HW,2013-07-01 22:24:00,
2013-07-01 18:29:00,71.6,25.2,29.93,North,0,1.3,3.4,18,0.01,,,0.01,WUHU216HW,2013-07-01 22:29:00,
2013-07-01 18:34:00,71.3,17.8,29.93,NNW,338,1.3,1.3,13,0.03,,,0.03,WUHU216HW,2013-07-01 22:34:00,
2013-07-01 18:39:00,70.7,11.5,29.93,NNW,338,2.7,2.7,9,0.05,,,0.06,WUHU216HW,2013-07-01 22:39:00,
2013-07-01 18:44:00,70.2,11.1,29.93,NNW,338,1.8,2.7,1,0.07,,,0.06,WUHU216HW,2013-07-01 22:44:00,
2013-07-01 18:49:00,70.0,11.0,29.93,NNW,338,1.3,2.5,1,0.08,,,0.08,WUHU216HW,2013-07-01 22:49:00,
2013-07-01 18:54:00,69.8,10.8,29.93,NNW,338,2.0,2.5,1,0.09,,,0.10,WUHU216HW,2013-07-01 22:54:00,
2013-07-01 18:59:00,69.5,10.5,29.93,NNW,338,1.1,2.0,1,0.13,,,0.13,WUHU216HW,2013-07-01 22:59:00,
2013-07-01 19:04:00,69.5,10.5,29.94,NNW,338,2.5,2.5,1,0.13,,,0.13,WUHU216HW,2013-07-01 23:04:00,
2013-07-01 19:09:00,69.3,10.5,29.94,NNW,338,1.1,2.5,1,0.14,,,0.13,WUHU216HW,2013-07-01 23:09:00,
2013-07-01 19:14:00,69.1,10.3,29.94,North,0,1.1,3.1,1,0.14,,,0.15,WUHU216HW,2013-07-01 23:14:00,
2013-07-01 19:19:00,69.1,10.3,29.94,NNW,338,1.3,2.0,1,0.13,,,0.15,WUHU216HW,2013-07-01 23:19:00,
2013-07-01 19:24:00,68.8,10.1,29.94,NNW,338,1.3,1.8,1,0.17,,,0.18,WUHU216HW,2013-07-01 23:24:00,
2013-07-01 19:29:00,68.8,10.1,29.94,NNW,338,0.4,1.8,1,0.19,,,0.22,WUHU216HW,2013-07-01 23:29:00,
2013-07-01 19:34:00,68.4,9.8,29.94,North,0,0.9,1.1,1,0.22,,,0.28,WUHU216HW,2013-07-01 23:34:00,
2013-07-01 19:39:00,68.2,9.6,29.94,North,0,1.1,1.1,1,0.28,,,0.34,WUHU216HW,2013-07-01 23:39:00,
2013-07-01 19:44:00,68.0,9.5,29.94,NNW,338,1.3,1.3,1,0.28,,,0.36,WUHU216HW,2013-07-01 23:44:00,
2013-07-01 19:49:00,68.0,9.5,29.95,NNW,338,1.8,2.7,1,0.28,,,0.37,WUHU216HW,2013-07-01 23:49:00,
2013-07-01 19:54:00,68.0,9.5,29.95,NNW,338,1.8,2.7,1,0.26,,,0.38,WUHU216HW,2013-07-01 23:54:00,
2013-07-01 19:59:00,68.0,9.5,29.95,NW,315,2.0,2.7,1,0.26,,,0.40,WUHU216HW,2013-07-01 23:59:00,
2013-07-01 20:04:00,67.9,9.4,29.95,North,0,1.6,2.7,1,0.33,,,0.46,WUHU216HW,2013-07-02 00:04:00,
2013-07-01 20:10:00,67.7,9.3,29.95,NNW,338,1.1,1.8,1,0.33,,,0.48,WUHU216HW,2013-07-02 00:10:00,
2013-07-01 20:15:00,67.7,9.3,29.95,NNW,338,0.7,1.6,1,0.33,,,0.48,WUHU216HW,2013-07-02 00:15:00,
2013-07-01 20:20:00,67.7,9.3,29.96,North,0,0.9,1.6,1,0.33,,,0.49,WUHU216HW,2013-07-02 00:20:00,
2013-07-01 20:25:00,67.7,9.3,29.96,North,0,0.7,1.6,1,0.30,,,0.49,WUHU216HW,2013-07-02 00:25:00,
2013-07-01 20:30:00,67.5,9.1,29.96,NNW,338,1.1,1.1,1,0.30,,,0.51,WUHU216HW,2013-07-02 00:30:00,
2013-07-01 20:35:00,67.7,9.3,29.96,NE,45,0.0,1.1,1,0.21,,,0.54,WUHU216HW,2013-07-02 00:35:00,
2013-07-01 20:40:00,67.5,9.1,29.96,NNW,338,1.8,1.8,1,0.24,,,0.59,WUHU216HW,2013-07-02 00:40:00,
2013-07-01 20:45:00,67.3,9.0,29.96,NNW,338,0.9,2.0,1,0.25,,,0.62,WUHU216HW,2013-07-02 00:45:00,
2013-07-01 20:50:00,67.1,8.8,29.97,North,0,0.4,2.0,1,0.28,,,0.65,WUHU216HW,2013-07-02 00:50:00,
2013-07-01 20:55:00,67.1,8.8,29.97,NNW,338,1.1,1.3,1,0.28,,,0.67,WUHU216HW,2013-07-02 00:55:00,
2013-07-01 21:00:00,66.8,8.6,29.97,North,0,2.0,2.0,1,0.25,,,0.69,WUHU216HW,2013-07-02 01:00:00,
2013-07-01 21:05:00,66.6,8.4,29.97,North,0,0.9,2.0,1,0.25,,,0.71,WUHU216HW,2013-07-02 01:05:00,
2013-07-01 21:10:00,66.6,8.4,29.97,North,0,1.1,2.0,1,0.25,,,0.73,WUHU216HW,2013-07-02 01:10:00,
2013-07-01 21:15:00,66.2,8.1,29.97,NNW,338,1.8,2.5,1,0.28,,,0.78,WUHU216HW,2013-07-02 01:15:00,
2013-07-01 21:20:00,66.1,7.9,29.98,NNW,338,1.1,2.5,1,0.30,,,0.78,WUHU216HW,2013-07-02 01:20:00,
2013-07-01 21:25:00,65.9,7.8,29.98,NNW,338,1.1,1.8,1,0.30,,,0.81,WUHU216HW,2013-07-02 01:25:00,
2013-07-01 21:30:00,65.9,7.8,29.98,NNW,338,1.1,1.8,1,0.28,,,0.81,WUHU216HW,2013-07-02 01:30:00,
2013-07-01 21:35:00,65.7,7.7,29.98,NNW,338,0.9,1.8,1,0.22,,,0.82,WUHU216HW,2013-07-02 01:35:00,
2013-07-01 21:40:00,65.7,7.7,29.99,NNW,338,0.0,1.1,1,0.22,,,0.83,WUHU216HW,2013-07-02 01:40:00,
2013-07-01 21:45:00,65.5,7.6,29.99,NNW,338,0.7,0.9,1,0.19,,,0.83,WUHU216HW,2013-07-02 01:45:00,
2013-07-01 21:50:00,65.5,7.6,29.99,NNW,338,1.6,2.2,1,0.18,,,0.84,WUHU216HW,2013-07-02 01:50:00,
2013-07-01 21:55:00,65.5,7.6,29.99,NNW,338,0.4,2.2,1,0.14,,,0.84,WUHU216HW,2013-07-02 01:55:00,
2013-07-01 22:00:00,65.3,7.4,29.99,North,0,0.9,1.6,1,0.13,,,0.84,WUHU216HW,2013-07-02 02:00:00,
2013-07-01 22:05:00,65.2,7.2,29.99,NNW,338,0.9,1.3,1,0.12,,,0.86,WUHU216HW,2013-07-02 02:05:00,
2013-07-01 22:10:00,65.2,7.2,29.99,NW,315,1.3,1.3,1,0.15,,,0.89,WUHU216HW,2013-07-02 02:10:00,
2013-07-01 22:15:00,65.2,7.2,29.99,West,270,0.0,1.3,1,0.10,,,0.89,WUHU216HW,2013-07-02 02:15:00,
2013-07-01 22:20:00,65.0,7.1,29.99,North,0,1.6,1.6,1,0.09,,,0.90,WUHU216HW,2013-07-02 02:20:00,
2013-07-01 22:25:00,64.8,6.9,29.99,NNW,338,1.8,2.0,1,0.10,,,0.91,WUHU216HW,2013-07-02 02:25:00,
2013-07-01 22:30:00,64.6,6.9,29.99,NNW,338,0.9,2.0,1,0.10,,,0.91,WUHU216HW,2013-07-02 02:30:00,
2013-07-01 22:35:00,64.4,6.7,29.99,NNW,338,1.3,1.8,1,0.09,,,0.92,WUHU216HW,2013-07-02 02:35:00,
2013-07-01 22:40:00,64.4,6.7,29.99,NW,315,2.5,2.5,1,0.09,,,0.92,WUHU216HW,2013-07-02 02:40:00,
2013-07-01 22:45:00,64.3,6.6,29.99,NNW,338,1.6,2.5,1,0.09,,,0.92,WUHU216HW,2013-07-02 02:45:00,
2013-07-01 22:50:00,64.1,6.4,29.99,NNW,338,0.4,2.5,1,0.08,,,0.92,WUHU216HW,2013-07-02 02:50:00,
2013-07-01 22:55:00,64.1,6.4,29.99,NNW,338,0.9,1.3,1,0.08,,,0.92,WUHU216HW,2013-07-02 02:55:00,
2013-07-01 23:00:00,64.1,6.4,29.99,North,0,2.0,2.0,1,0.08,,,0.92,WUHU216HW,2013-07-02 03:00:00,
2013-07-01 23:05:00,63.9,6.3,29.99,North,0,0.4,2.0,1,0.06,,,0.92,WUHU216HW,2013-07-02 03:05:00,
2013-07-01 23:10:00,63.9,6.3,29.99,NW,315,1.1,2.0,1,0.03,,,0.92,WUHU216HW,2013-07-02 03:10:00,
2013-07-01 23:15:00,63.7,6.1,29.99,North,0,0.9,1.1,1,0.02,,,0.92,WUHU216HW,2013-07-02 03:15:00,
2013-07-01 23:20:00,63.7,6.1,29.99,WNW,293,1.3,1.3,1,0.01,,,0.92,WUHU216HW,2013-07-02 03:20:00,
2013-07-01 23:25:00,63.7,6.1,29.98,NW,315,0.4,1.3,1,0.01,,,0.92,WUHU216HW,2013-07-02 03:25:00,
2013-07-01 23:30:00,63.5,6.0,29.99,NNW,338,0.9,1.1,1,0.00,,,0.92,WUHU216HW,2013-07-02 03:30:00,
2013-07-01 23:35:00,63.4,6.0,29.99,NNW,338,0.2,1.1,1,0.00,,,0.92,WUHU216HW,2013-07-02 03:35:00,
2013-07-01 23:40:00,63.4,6.0,29.99,NNW,338,0.4,0.9,1,0.00,,,0.92,WUHU216HW,2013-07-02 03:40:00,
2013-07-01 23:45:00,63.2,5.8,29.99,WNW,293,0.4,0.7,1,0.00,,,0.92,WUHU216HW,2013-07-02 03:45:00,
2013-07-01 23:50:00,63.2,5.8,29.99,WNW,293,0.4,0.7,1,0.00,,,0.92,WUHU216HW,2013-07-02 03:50:00,
2013-07-01 23:55:00,63.0,5.7,29.99,NW,315,0.4,0.9,1,0.00,,,0.92,WUHU216HW,2013-07-02 03:55:00,